Probability
0 0 0 0 0 0 0 0 0 0 3 6 19 26 35 52 68 68 74 74 71 74 68 61 58 65 65 74 77 77 77 81 84 84 84 81 81 77 77 68 52 39 32 26
0 0 0 0 0 0 0 0 0 0 0 3 19 32 42 52 58 65 61 61 55 55 58 58 55 58 55 68 71 65 71 74 77 74 77 81 71 71 52 42 48 42 32 35
0 0 0 0 0 0 0 0 0 0 0 3 16 26 29 29 39 42 45 45 32 35 35 39 35 35 29 39 45 45 65 68 71 74 61 48 58 61 48 45 45 35 26 23
0 0 0 0 0 0 0 0 0 0 0 0 10 10 32 16 23 26 26 29 29 23 23 19 16 19 16 26 29 32 48 58 65 61 52 45 35 26 29 32 32 32 23 19
0 0 0 0 0 0 0 0 0 0 0 0 0 0 3 10 16 23 23 26 29 19 16 16 16 13 10 10 13 23 48 48 58 55 48 52 35 32 23 32 29 32 29 19
0 0 0 0 0 0 0 0 0 0 0 0 0 0 0 16 16 16 19 23 23 13 13 13 16 13 16 13 10 16 32 42 48 48 48 52 42 42 35 35 29 26 19 10
0 0 0 0 0 0 0 0 0 0 0 0 0 0 10 13 10 6 13 10 3 6 6 6 6 6 10 13 13 13 23 23 19 26 35 39 48 42 23 13 10 19 13 13
0 0 0 0 0 0 0 0 3 0 0 0 0 3 6 6 10 3 0 0 0 0 0 0 3 6 6 6 3 3 6 13 19 16 19 23 16 6 0 0 3 3 3 3
0 0 0 0 0 0 0 0 0 0 0 0 0 16 0 10 0 0 0 0 0 0 0 0 0 0 3 3 3 0 6 6 6 10 10 10 6 6 0 6 6 3 3 0
0 0 0 0 0 0 0 0 0 0 3 0 0 6 10 3 0 0 0 0 0 0 0 0 0 0 0 0 3 3 3 3 3 3 6 0 3 0 3 3 0 0 0 0
0 0 0 0 0 0 0 0 0 0 3 0 0 3 3 3 0 0 0 0 0 0 0 0 0 0 0 0 0 0 0 3 3 3 0 0 0 3 3 3 0 0 0 0
0 0 0 0 0 0 0 0 0 0 0 0 0 0 0 0 0 0 0 0 0 0 0 0 0 0 0 0 0 0 0 0 0 0 0 0 0 0 3 0 0 0 0 0
0 3 0 0 0 0 0 0 0 0 0 0 0 0 0 0 0 0 0 0 0 0 0 0 0 0 0 0 0 0 0 0 0 0 0 0 0 0 0 0 0 0 0 0
0 3 0 0 0 0 0 0 0 0 0 0 0 0 0 0 0 0 0 0 0 0 0 0 0 0 0 0 0 0 0 0 0 0 0 0 0 0 3 0 0 0 0 0
0 0 0 0 0 0 0 0 0 0 0 0 0 0 0 0 0 0 0 0 0 0 0 0 0 0 0 0 0 0 0 0 0 0 0 0 0 0 0 0 0 0 0 0
0 0 3 3 0 0 0 0 0 0 0 0 0 0 0 0 0 0 0 0 0 0 0 0 0 0 0 0 0 0 0 0 0 0 0 0 0 0 0 0 0 0 0 0
0 3 3 3 0 0 0 0 0 0 0 0 0 0 0 0 0 0 0 0 0 0 0 0 0 0 0 0 0 0 0 0 0 0 0 0 0 0 0 0 0 0 0 0
3 10 32 0 3 0 0 0 0 0 0 0 0 0 0 0 0 0 0 0 0 0 0 0 0 0 0 0 0 0 0 0 0 0 0 0 0 0 0 0 0 0 0 3
0 0 0 0 0 0 0 0 0 0 0 0 0 0 0 0 0 0 0 0 0 0 0 0 0 0 0 0 0 0 0 0 0 0 0 0 0 0 0 0 0 0 0 0
0 0 0 0 0 0 0 0 0 0 0 0 0 0 0 0 0 0 0 0 0 0 0 0 0 0 0 0 0 0 0 0 0 0 0 0 0 0 0 0 0 0 0 0
3 0 0 0 0 0 0 0 0 0 0 0 0 0 0 0 0 0 0 0 0 0 0 0 0 0 0 0 0 0 0 0 0 0 0 0 0 0 0 0 0 0 0 0
0 0 0 0 0 0 0 0 0 0 0 0 0 0 0 0 0 0 0 0 0 0 0 0 0 0 0 0 0 0 0 0 0 0 0 0 0 0 0 0 0 0 0 0
0 0 0 0 0 0 0 0 0 0 0 0 0 0 0 0 0 0 0 0 0 0 0 0 0 0 0 0 0 0 0 0 0 0 0 0 0 0 0 0 0 0 0 0
0 0 0 0 0 0 0 0 0 0 0 0 0 0 0 0 0 0 0 0 0 0 0 0 0 0 0 0 0 0 0 0 0 0 0 0 0 0 0 0 0 0 0 0
0 0 0 0 0 0 0 0 0 0 0 0 0 0 0 0 0 0 0 0 0 0 0 0 0 0 0 0 0 0 0 0 0 0 0 0 0 0 0 0 0 0 0 0
0 0 0 0 0 0 0 0 0 0 0 0 0 0 0 0 0 0 0 0 0 0 0 0 0 0 0 0 0 0 0 0 0 0 0 0 0 0 0 0 0 0 0 0
Height
5864 5865 5865 5868 5869 5871 5871 5872 5873 5872 5868 5868 5867 5864 5860 5856 5855 5855 5854 5853 5852 5850 5849 5847 5846 5845 5843 5841 5839 5837 5835 5832 5830 5828 5826 5823 5821 5819 5816 5814 5811 5808 5806 5804
5864 5864 5865 5866 5867 5867 5868 5869 5869 5869 5866 5865 5863 5859 5855 5849 5850 5850 5850 5849 5847 5846 5844 5842 5840 5838 5836 5834 5832 5830 5827 5824 5822 5819 5817 5815 5812 5810 5807 5805 5803 5800 5798 5796
5863 5864 5864 5865 5866 5866 5866 5866 5865 5864 5863 5861 5859 5854 5848 5844 5844 5845 5845 5845 5843 5841 5839 5836 5834 5832 5830 5827 5825 5822 5819 5816 5813 5810 5808 5805 5802 5800 5798 5796 5794 5792 5790 5788
5863 5864 5865 5864 5864 5864 5863 5861 5860 5860 5859 5857 5854 5847 5842 5840 5839 5840 5841 5840 5838 5836 5833 5830 5827 5825 5822 5819 5816 5813 5810 5807 5804 5800 5798 5795 5792 5790 5787 5785 5784 5782 5781 5780
5861 5861 5862 5862 5862 5862 5860 5859 5859 5857 5855 5854 5848 5842 5835 5832 5836 5837 5836 5835 5833 5830 5827 5824 5821 5817 5814 5811 5807 5804 5801 5798 5794 5790 5787 5784 5781 5779 5776 5774 5773 5772 5771 5770
5858 5858 5859 5860 5860 5859 5858 5857 5856 5853 5851 5849 5844 5840 5835 5831 5833 5832 5831 5830 5828 5825 5821 5817 5813 5810 5806 5802 5798 5794 5791 5787 5784 5780 5776 5773 5770 5768 5765 5763 5762 5761 5760 5759
5854 5855 5857 5858 5858 5858 5857 5856 5854 5850 5846 5842 5839 5835 5833 5832 5832 5830 5828 5826 5822 5819 5814 5810 5805 5801 5797 5793 5789 5785 5781 5777 5773 5769 5766 5762 5759 5757 5754 5752 5750 5749 5748 5748
5856 5855 5856 5857 5857 5856 5855 5853 5853 5849 5846 5841 5836 5833 5832 5832 5831 5828 5825 5821 5817 5813 5808 5803 5797 5793 5788 5784 5779 5774 5770 5767 5763 5759 5755 5751 5748 5745 5742 5740 5738 5736 5736 5736
5857 5856 5857 5856 5856 5855 5854 5852 5851 5849 5847 5844 5838 5834 5832 5831 5829 5826 5822 5817 5812 5807 5801 5796 5790 5785 5780 5774 5770 5765 5760 5756 5752 5748 5744 5740 5736 5732 5729 5727 5724 5722 5722 5721
5859 5859 5858 5857 5855 5854 5853 5851 5849 5848 5846 5845 5841 5835 5833 5830 5827 5823 5817 5812 5807 5801 5795 5789 5783 5777 5772 5766 5761 5756 5750 5746 5741 5736 5732 5727 5723 5720 5716 5713 5710 5708 5706 5705
5859 5859 5858 5856 5855 5852 5852 5850 5847 5846 5844 5843 5840 5836 5831 5826 5823 5818 5812 5806 5800 5794 5788 5782 5776 5770 5764 5758 5752 5746 5741 5735 5730 5724 5719 5715 5710 5706 5702 5698 5695 5692 5690 5688
5858 5858 5855 5854 5852 5851 5850 5848 5846 5845 5842 5840 5839 5835 5828 5823 5819 5813 5807 5801 5795 5788 5782 5775 5769 5762 5756 5750 5744 5737 5731 5725 5719 5713 5707 5702 5697 5692 5687 5682 5678 5675 5673 5671
5858 5857 5856 5853 5853 5852 5850 5847 5845 5843 5841 5839 5837 5835 5826 5821 5816 5809 5803 5796 5789 5782 5776 5769 5762 5755 5749 5742 5735 5728 5722 5715 5708 5701 5695 5689 5682 5676 5671 5666 5661 5657 5655 5653
5857 5856 5856 5856 5854 5852 5850 5847 5844 5842 5839 5837 5834 5830 5823 5818 5812 5805 5798 5791 5784 5776 5769 5762 5755 5748 5741 5734 5727 5720 5713 5705 5698 5690 5683 5675 5668 5661 5655 5649 5645 5641 5638 5636
5857 5856 5855 5854 5853 5851 5849 5846 5843 5840 5837 5835 5831 5825 5819 5814 5807 5800 5793 5786 5778 5771 5764 5756 5749 5741 5734 5726 5719 5711 5703 5695 5687 5679 5671 5663 5655 5648 5641 5635 5630 5626 5623 5620
5856 5855 5854 5853 5851 5850 5847 5844 5841 5839 5835 5832 5828 5823 5816 5810 5803 5796 5789 5781 5773 5766 5758 5750 5742 5734 5726 5719 5711 5702 5694 5685 5677 5668 5659 5651 5643 5635 5628 5622 5617 5613 5609 5605
5854 5853 5853 5851 5850 5848 5846 5844 5840 5837 5833 5829 5824 5820 5813 5806 5798 5791 5784 5776 5768 5760 5752 5744 5736 5727 5719 5711 5703 5694 5685 5676 5667 5657 5648 5640 5631 5624 5617 5611 5605 5600 5596 5592
5854 5853 5851 5850 5850 5848 5846 5842 5839 5835 5831 5827 5821 5816 5809 5802 5794 5786 5779 5771 5763 5755 5747 5738 5730 5721 5713 5704 5695 5686 5677 5668 5658 5649 5639 5630 5622 5614 5607 5600 5595 5589 5584 5580
5852 5851 5850 5849 5848 5846 5842 5839 5836 5832 5828 5824 5818 5812 5805 5799 5791 5782 5774 5766 5758 5750 5742 5733 5724 5716 5707 5698 5689 5680 5670 5661 5651 5641 5631 5622 5614 5606 5598 5591 5585 5580 5575 5571
5851 5850 5849 5847 5846 5845 5841 5837 5834 5831 5825 5820 5814 5809 5802 5795 5789 5781 5772 5763 5755 5746 5737 5728 5720 5711 5702 5693 5684 5674 5664 5654 5644 5635 5625 5616 5607 5599 5591 5584 5578 5573 5568 5564
5850 5848 5846 5845 5843 5841 5838 5834 5832 5829 5824 5818 5812 5806 5799 5791 5784 5777 5768 5759 5751 5742 5733 5724 5715 5706 5697 5688 5679 5669 5659 5649 5639 5629 5620 5610 5601 5593 5586 5579 5573 5567 5563 5559
5848 5846 5844 5843 5841 5839 5835 5831 5829 5825 5820 5814 5809 5803 5796 5788 5781 5773 5764 5756 5747 5738 5730 5720 5711 5702 5693 5684 5675 5665 5655 5645 5635 5625 5616 5607 5598 5590 5583 5576 5570 5565 5560 5557
5845 5844 5841 5840 5839 5834 5831 5828 5825 5821 5816 5811 5805 5799 5793 5785 5778 5770 5761 5753 5744 5735 5726 5717 5708 5699 5690 5681 5671 5662 5652 5642 5632 5623 5613 5604 5596 5588 5581 5574 5569 5564 5560 5556
5841 5840 5838 5836 5833 5830 5827 5824 5821 5817 5812 5807 5802 5796 5789 5782 5775 5767 5759 5750 5741 5732 5723 5714 5705 5696 5687 5678 5669 5659 5650 5640 5630 5621 5612 5603 5595 5588 5581 5574 5569 5564 5560 5556
5838 5836 5834 5832 5829 5826 5823 5820 5817 5813 5808 5803 5798 5792 5786 5779 5772 5764 5756 5747 5738 5730 5721 5712 5703 5694 5685 5676 5667 5658 5648 5639 5630 5621 5612 5604 5596 5589 5582 5576 5570 5565 5561 5557
5834 5832 5830 5828 5825 5823 5820 5816 5813 5809 5805 5800 5795 5789 5783 5776 5769 5761 5753 5744 5736 5727 5718 5709 5701 5692 5683 5675 5666 5657 5648 5639 5630 5622 5613 5605 5598 5591 5584 5578 5572 5567 5562 5558
Wind_Speed
7 5 3 3 8 12 13 12 10 13 17 19 19 22 24 24 23 21 21 21 22 23 24 25 27 29 31 33 34 36 38 39 41 42 42 43 44 44 44 43 43 43 41 40
5 5 4 8 10 10 10 9 11 15 17 19 18 22 23 21 19 17 18 20 22 23 24 25 26 28 30 32 33 35 37 38 40 41 42 43 44 44 44 43 42 41 40 38
8 3 5 6 7 7 8 12 15 15 17 18 20 23 24 22 17 14 17 20 23 25 26 27 28 29 30 32 33 35 37 38 40 41 42 43 43 43 44 43 41 40 39 37
5 3 6 7 7 8 12 13 14 14 16 17 22 29 29 24 16 13 18 21 24 26 27 28 29 30 31 33 35 36 37 39 40 41 42 43 42 42 43 43 42 41 39 38
3 4 6 7 7 9 12 11 13 15 17 19 24 28 26 17 18 20 22 24 26 28 30 31 32 33 34 36 37 38 39 39 40 41 42 42 42 42 42 41 40 40 40 40
5 6 5 6 7 9 10 10 12 16 18 22 23 25 23 15 20 22 25 28 30 31 33 34 35 36 36 37 37 38 39 40 41 41 42 42 41 41 41 42 41 41 40 40
4 3 4 5 6 8 9 11 13 17 18 21 16 15 15 19 23 26 28 31 33 35 36 36 37 37 36 37 38 38 39 40 40 41 41 41 42 42 42 42 42 42 41 41
9 6 5 6 8 9 9 11 13 17 18 19 16 17 18 21 25 28 31 33 35 36 37 37 38 38 38 38 38 38 39 39 39 40 41 42 43 44 43 43 44 44 43 43
9 8 9 10 9 10 9 9 10 12 12 16 21 23 23 25 28 30 32 35 36 37 37 38 38 38 38 38 38 39 39 39 39 40 41 43 44 44 44 44 45 45 46 46
8 7 8 10 9 10 10 10 10 10 10 11 18 24 25 28 29 31 34 36 36 37 37 37 37 38 38 38 38 39 40 40 41 41 42 43 43 44 45 46 47 48 48 49
7 5 5 8 10 9 10 11 11 11 12 12 15 24 26 29 31 33 35 36 37 37 37 37 38 38 38 39 39 40 41 41 41 42 43 43 44 45 46 47 48 49 49 50
5 5 7 8 8 9 11 12 12 13 13 13 13 23 28 31 33 35 36 37 37 37 37 38 38 38 38 39 40 40 41 41 42 43 43 44 46 47 47 48 49 50 50 50
6 5 7 10 9 11 13 14 14 13 13 14 15 21 29 31 33 35 36 36 37 37 37 38 38 38 39 39 40 40 41 42 43 44 45 46 47 47 48 48 48 48 48 49
7 5 5 8 9 11 13 14 15 15 15 15 19 23 28 31 33 35 35 36 37 37 37 38 38 38 39 39 39 40 41 42 43 44 45 46 46 46 46 45 44 44 44 45
6 5 5 6 8 10 12 14 16 17 17 19 22 26 29 32 34 35 35 36 37 37 38 38 39 39 39 39 40 41 43 43 44 45 45 45 45 44 43 42 41 41 41 41
7 7 7 7 9 12 14 16 18 19 20 21 23 26 29 32 34 35 35 36 37 37 38 39 39 40 40 40 41 42 43 44 44 44 45 44 44 42 41 40 39 38 38 39
8 8 7 7 10 13 15 17 19 20 21 23 25 27 30 32 35 35 35 36 37 38 39 40 41 41 41 41 42 42 43 44 44 44 44 43 42 40 38 37 36 36 37 37
8 8 7 6 9 12 15 16 19 21 22 23 26 28 31 34 36 37 37 38 39 40 40 41 41 41 41 41 41 42 43 44 44 43 42 41 40 38 36 35 34 33 32 31
10 9 9 7 7 12 17 17 19 21 23 24 27 29 32 34 36 38 39 40 40 40 41 41 41 40 40 41 41 42 44 43 43 42 41 40 38 37 34 33 32 29 28 27
12 11 10 9 9 12 16 18 20 22 25 26 28 30 32 34 36 37 38 39 40 40 41 41 41 40 40 41 41 43 43 42 42 41 40 38 37 35 33 31 29 27 25 23
14 12 12 12 12 15 17 19 21 23 25 26 28 31 33 35 37 38 39 40 40 41 41 41 41 40 41 41 41 42 42 42 41 40 38 37 35 33 31 28 26 23 20 18
14 14 14 14 14 17 19 20 21 22 24 26 28 30 33 35 37 39 40 40 41 41 42 41 41 40 41 41 41 41 41 41 40 38 37 36 33 31 29 26 23 20 17 15
15 15 16 16 18 19 20 20 21 22 24 26 28 30 33 35 37 39 40 41 41 42 42 42 41 40 41 40 41 40 40 40 39 38 36 34 32 30 28 25 22 19 16 14
17 15 16 17 18 19 20 20 21 23 24 26 28 30 33 35 38 39 40 41 42 42 42 42 41 40 40 39 40 39 40 39 39 37 35 34 31 29 27 25 23 20 17 15
18 18 17 18 18 19 20 21 22 23 25 26 28 31 33 35 38 39 40 42 42 42 42 41 41 40 39 39 39 39 39 38 37 36 35 33 31 29 28 25 23 20 17 15
17 18 18 19 19 20 21 22 23 24 25 27 29 31 33 36 38 39 40 42 42 42 42 41 40 40 39 39 38 38 38 37 36 35 34 32 30 29 28 26 23 21 19 15
Wind_Direction
305 305 315 280 262 259 259 248 248 254 258 268 274 272 276 277 282 286 290 292 291 290 288 285 283 281 281 281 282 282 283 282 282 283 284 285 286 287 287 289 290 291 290 287
292 288 273 266 267 264 262 262 259 256 262 271 274 270 275 276 280 285 294 299 299 297 294 291 288 286 284 284 283 283 283 283 283 284 285 285 285 285 286 287 289 289 290 288
291 293 285 276 282 274 264 255 253 262 271 274 277 275 275 278 279 288 304 307 305 302 299 296 293 290 288 287 286 286 286 286 286 286 286 287 286 287 286 286 286 287 287 288
284 281 275 277 271 272 269 259 259 265 273 277 275 272 275 275 285 308 312 312 310 308 304 301 299 296 293 292 290 289 288 288 288 287 287 288 287 287 287 286 285 284 284 283
246 259 271 282 281 277 280 279 277 272 271 265 265 269 276 289 308 319 319 317 313 310 306 304 302 300 298 296 294 293 291 290 290 289 289 289 289 288 287 286 285 283 282 282
221 228 257 286 284 284 286 286 286 286 283 275 275 277 282 308 321 325 324 319 315 312 310 307 305 303 302 299 297 296 294 293 292 291 291 290 289 288 288 287 286 284 282 280
293 265 260 293 303 290 287 293 298 302 305 304 299 297 291 314 323 324 321 317 315 313 312 310 308 307 305 303 300 298 296 295 294 293 293 291 290 289 288 287 286 284 281 279
341 344 324 327 325 311 305 313 317 319 326 329 330 323 328 326 323 321 318 316 315 315 314 313 311 310 309 308 306 304 302 299 297 296 294 293 292 290 289 287 285 283 281 278
330 344 343 340 329 319 313 313 306 314 327 330 327 323 322 325 322 320 319 318 318 317 316 315 314 313 312 310 309 307 305 303 300 298 296 294 292 291 289 288 286 284 281 278
324 332 339 335 329 326 324 318 318 323 322 329 324 316 318 321 322 323 321 321 320 319 318 317 317 316 315 313 311 310 308 306 304 301 299 297 295 292 290 289 287 284 282 279
301 308 314 322 330 332 330 327 326 322 321 327 325 312 319 321 326 326 325 324 323 322 321 320 319 318 317 315 314 313 311 309 307 304 302 299 297 295 292 290 288 285 282 279
297 292 297 297 321 340 336 334 333 333 335 336 328 314 321 326 330 328 327 326 325 324 323 322 321 320 319 318 317 315 313 311 309 307 304 301 299 297 294 291 288 285 282 278
316 318 337 336 344 348 341 339 340 339 338 334 327 315 320 328 330 329 329 328 327 326 324 324 323 321 320 319 318 317 315 314 312 310 307 305 303 300 296 293 290 287 283 279
317 326 337 336 338 336 336 337 339 341 340 335 328 323 326 332 331 331 330 329 329 328 327 326 325 323 323 322 320 319 318 316 315 313 311 309 306 303 300 296 292 289 285 282
323 325 324 327 333 335 336 339 342 343 341 336 333 330 333 335 334 334 333 332 331 330 329 328 327 327 325 324 322 321 321 319 317 315 313 311 309 306 302 298 295 292 288 284
323 327 329 336 337 341 341 341 343 342 339 337 336 335 336 337 336 337 336 335 334 333 333 331 330 329 327 326 324 324 324 322 321 319 317 315 313 310 306 301 297 294 291 287
325 330 336 344 339 342 331 336 338 339 338 338 338 339 339 340 338 340 340 338 338 337 336 335 333 331 330 328 327 327 327 326 325 323 322 320 317 314 310 306 302 299 296 292
328 329 332 339 334 320 320 332 334 335 336 338 340 342 342 343 341 342 343 342 342 340 339 337 336 334 333 332 331 331 330 330 329 328 326 324 322 319 316 311 308 305 301 296
326 327 329 334 335 313 320 330 333 334 335 340 343 345 344 344 343 343 344 344 343 342 341 340 338 337 336 335 334 334 333 333 333 332 331 329 327 325 321 317 314 310 306 301
319 319 322 325 323 305 313 327 332 333 335 342 343 344 344 345 345 345 345 345 344 344 343 341 340 339 339 338 337 337 337 337 337 336 335 334 332 330 328 325 321 316 311 307
310 317 318 317 317 304 318 324 327 329 334 338 340 343 345 346 346 346 347 346 345 345 344 343 342 341 341 341 341 341 341 340 341 340 340 339 337 336 335 333 329 324 320 316
299 302 305 309 306 303 317 319 323 327 330 334 338 342 344 346 347 347 348 347 346 346 345 345 344 343 343 344 344 344 344 345 345 345 345 344 344 343 343 343 341 338 334 331
295 296 297 301 303 308 312 316 321 326 329 334 338 341 344 345 346 348 348 349 348 347 347 347 346 345 345 346 347 347 348 349 350 349 350 351 350 350 350 349 349 347 343 339
293 296 296 300 303 308 312 317 321 326 330 334 338 341 343 344 346 347 348 349 349 349 349 348 348 348 348 349 350 350 351 352 353 354 355 357 357 357 356 356 356 355 353 350
288 297 299 301 305 308 313 317 321 325 329 333 336 339 342 344 346 347 348 350 350 350 350 350 350 350 351 351 352 353 354 355 356 358 358 359 1 3 3 2 3 2 359 356
289 294 300 303 306 308 312 316 320 323 327 331 334 338 341 343 345 347 347 349 350 350 350 351 352 352 352 353 354 355 356 357 359 1 2 4 6 7 8 9 9 9 9 7